Погода в Гяндже

Погода в Гяндже : погода сейчас, прогноз погоды и архив. Всё, что Вы хотите узнать о погоде в Гяндже!

Поиск расширенной информации на нашем сайте:

Другие новости

Новости СМИ2

Главная страница сайта

Новости сайта

03.07.2017

Напоминаем, что на нашем специализированном сайте Метеоцентр.Азия вы можете получить высокодетализированные автоматические прогнозы погоды по пунктам России, СНГ и мира в авиационном формате (включающие направление и скорость ветра, видимость, явления погоды, количество и форму облачности, нижнюю и верхнюю границу облачности).

Рекомендуем: Высказывания Мастеров восточных единоборств.

Погода в Гяндже - сегодня

Время (UTC), дата Ветер
(°,м/с) 
Видим.   Явления Облачность Т
(°С)
Тd
(°С)
f(%) Тe
(°С)
Pmin
(гПа)
dP
(гПа)
Po
(мм)
O2
(г/м3)
Тmin Tmax R s Состояние
почвы
12 18.10.17 050 (СВ) 20000 м    3/0 верхняя 
[Ci fib]
+19.8 +5.9 40 +21  1023.3  -0.9  740  277           
15 18.10.17 140 (ЮВ) 20000 м    3/0 средняя 
[Ac trans]
+16.3 +8.6 60 +18  1023.8  0.5  741  280           
18 18.10.17 тихо ()   20000 м    ясно 
+12.7 +8.1 74 +13  1023  -0.8  739  283    +20       
21 18.10.17 140 (ЮВ) 20000 м    ясно 
+10.3 +8.2 87 +11  1023.9  0.9  740  286           
00 19.10.17 140 (ЮВ) 4000 м    10/10 600 м 
[Frnb]
+9.6 +8.1 90 +11  1024.2  0.3  740  287           
03 19.10.17 тихо ()   4000 м  слаб. морось  10/10 1000 м 
[Frnb]
+11.9 +10.2 89 +14  1020.5  0.3  740  284           
06 19.10.17 320 (СЗ) 4000 м  дымка{морось}  10/10 600 м 
[Frnb]
+12.4 +10.3 87 +16  1025.3  0.8  741  284  +9.5         
09 19.10.17 360 (С) 10 км    9/9 1000 м 
[Cu med, cong]
+15.2 +9.8 70 +18  1025  -0.3  741  281           
12 19.10.17 тихо ()   20000 м    1/0 средняя 
[Ac cuf]
+16.8 +10.6 67 +19  1022.8  -2.2  739  279           
15 19.10.17 тихо ()   20000 м    1/0 средняя 
[Ac cuf]
+13.9 +10.5 80 +16  1021.5  -1.3  739  281           
18 19.10.17 тихо ()   10 км    ясно 
+12.7 +8.5 76 +13  1022  0.5  739  283    +18.6       
21 19.10.17 тихо ()   10 км    ясно 
+11.1 +7.8 80 +11  1021.8  -0.2  738  284           
00 20.10.17 тихо ()   10 км    ясно 
+9.7 +6.1 78 +10  1021  -0.8  737  286           
03 20.10.17 тихо ()   20000 м    ясно 
+8.9 +7 88 +9  1020.5  -0.5  737  286           
06 20.10.17 290 (З) 20000 м    ясно 
+14 +8 67 +15  1020.7  0.2  738  281  +7.6         
09 20.10.17 270 (З) 20000 м    ясно 
+17.2 +8.9 58 +19  1020.1  -0.6  737  278           
12 20.10.17 тихо ()   20000 м    ясно 
+18.4 +9.9 58 +20  1018.3  -1.8  736  276           
15 20.10.17 тихо ()   10 км    10/0 верхняя 
[Cs]
+13.5 +10.4 82 +16  1018.4  0.1  736  281           
18 20.10.17 тихо ()   10 км    8/0 средняя 
[Ac cast]
+11 +8.5 85 +11  1019.8  1.4  737  284    +19.3       
21 20.10.17 тихо ()   10 км    ясно 
+9.4 +7.1 86 +9  1020.5  0.7  737  286           
00 21.10.17 тихо ()   10 км    ясно 
+9 +7.5 90 +9  1020.2  -0.3  737  286           
03 21.10.17 тихо ()   10 км    ясно 
+9.1 +6.1 81 +9  1020.5  0.3  737  286           
06 21.10.17 320 (СЗ) 10 км    ясно 
+12.7 +7.6 71 +14  1020.6  0.3  737  283  +7.9         
09 21.10.17 тихо ()   10 км    ясно 
+16.4 +8.8 61 +16  1019.4  -1.2  736  278           
12 21.10.17 тихо ()   10 км    ясно 
+17.9 +10 60 +19  1016.9  -2.5  735  276           
Время (UTC), дата Ветер
(°,м/с) 
Видим.   Явления Облачность Т
(°С)
Тd
(°С)
f(%) Тe
(°С)
Pmin
(гПа)
dP
(гПа)
Po
(мм)
O2
(г/м3)
Тmin Tmax R s Состояние
почвы

Для получения пояснительной информации подведите курсор к названию столбца.

ПОГОДА в Гяндже - архив

Всё, что Вы хотите узнать о погоде в Гяндже - удобно и подробно!

Выберите нужную дату (начиная с 1 января 2015* года) и нажмите кнопку "Найти".
Будут отображены архивные сводки погоды по пункту Гянджа, начиная с указанной даты.


Отображать данные в формате CSV (для использования в таблицах Excel)


Внимание! Наш архив погоды предназначен исключительно для личного некоммерческого использования в познавательных целях. Если Вам необходимы официальные справки о состоянии погоды (для производственных, юридических, коммерческих и т.п. целей), обращайтесь в органы Росгидромета.

*Примечание: данная дата относится к архиву по метеостанциям СССР (Россия, СНГ, Балтия).
Архив по метеостанциям Зарубежной Европы и Азии (кроме Китая) хранится 10 дней, по другим регионам земного шара (Китай, Африка, Америка, Австралия, Океания) - 1 день.

Гянджа - район местоположения метеостанции


Название, широта, долгота, высота метеостанции:
Гянджа (город) 40.7°ш. 46.4°д. 311 м над ур. моря [Азербайджан]

Дополнительная информация

В oтличие oт бoльшинства пoгoдных сайтoв мы публикуем пoдрoбную метеoинфoрмацию в детальнoм прoфессиoнальнoм фoрмате.

Характеристики температуры и влажнoсти вoздуха измеряются на высoте 2 м в тени вдали oт зданий и деревьев.
Скoрoсть ветра измеряется на высoте 10 м (на урoвне рoста челoвека скoрoсть ветра ниже в 1.5-2 раза). Если метеoстанция нахoдится в гoрoде или в лесу, тo скoрoсть ветра занижена на 2-4 м/с пo сравнению с oткрытым местoм. Скoрoсть ветра над акватoриями крупных рек и oзёр, а также на вершинах хoлмoв на 2-5 м/с выше, чем в oбычных услoвиях.
Атмoсфернoе давление в разных тoчках местнoсти мoжет значительнo oтличаться oт давления на метеoстанции, в зависимoсти oт услoвий рельефа (при пoдъёме на 10 м давление пoнижается примернo на 1 мм рт.ст.).